| time (UTC) | temp F | wind direction | speed knots | gust knots | rain 1hr in | rain 24hr in | rain mn in | humidity % | barometer mb |
| 20260509201228 | 80 | 0 | 0.0 | 0.0 | 0.00 | 0.00 | 0.00 | 91 | 921.5 |
| 20260509195728 | 81 | 0 | 0.0 | 0.0 | 0.00 | 0.00 | 0.00 | 89 | 921.4 |
| 20260509194228 | 83 | 0 | 0.0 | 0.0 | 0.00 | 0.00 | 0.00 | 87 | 921.2 |
| 20260509192728 | 84 | 0 | 0.0 | 0.0 | 0.00 | 0.00 | 0.00 | 87 | 921.0 |
| 20260509191229 | 83 | 0 | 0.0 | 0.0 | 0.00 | 0.00 | 0.00 | 88 | 920.9 |
| 20260509185728 | 82 | 0 | 0.0 | 0.0 | 0.00 | 0.00 | 0.00 | 89 | 920.9 |
| 20260509184229 | 83 | 0 | 0.0 | 0.0 | 0.00 | 0.00 | 0.00 | 90 | 921.0 |
| 20260509182728 | 83 | 0 | 0.0 | 0.0 | 0.00 | 0.00 | 0.00 | 89 | 921.2 |
| 20260509181228 | 83 | 0 | 0.0 | 0.0 | 0.00 | 0.00 | 0.00 | 90 | 921.2 |
| 20260509175728 | 84 | 0 | 0.0 | 0.0 | 0.00 | 0.00 | 0.00 | 91 | 921.3 |
| 20260509174228 | 85 | 0 | 0.0 | 0.0 | 0.00 | 0.00 | 0.00 | 89 | 921.2 |
| 20260509172729 | 84 | 0 | 0.0 | 0.0 | 0.00 | 0.00 | 0.00 | 93 | 921.4 |
| 20260509171228 | 83 | 0 | 0.0 | 0.0 | 0.00 | 0.00 | 0.00 | 91 | 921.5 |
| 20260509165728 | 83 | 0 | 0.0 | 0.0 | 0.00 | 0.00 | 0.00 | 90 | 921.6 |
| 20260509164228 | 84 | 0 | 0.0 | 0.0 | 0.00 | 0.00 | 0.00 | 95 | 921.7 |
| 20260509162728 | 84 | 0 | 0.0 | 0.0 | 0.00 | 0.00 | 0.00 | 91 | 921.8 |
| 20260509161228 | 83 | 0 | 0.0 | 0.0 | 0.00 | 0.00 | 0.00 | 92 | 921.9 |
| 20260509155728 | 83 | 0 | 0.0 | 0.0 | 0.00 | 0.00 | 0.00 | 94 | 922.0 |
| 20260509154228 | 83 | 0 | 0.0 | 0.0 | 0.00 | 0.00 | 0.00 | 93 | 922.0 |
| 20260509152728 | 83 | 0 | 0.0 | 0.0 | 0.00 | 0.00 | 0.00 | 92 | 922.2 |
| 20260509151228 | 84 | 0 | 0.0 | 0.0 | 0.00 | 0.00 | 0.00 | 92 | 922.5 |
| 20260509145728 | 84 | 0 | 0.0 | 0.0 | 0.00 | 0.00 | 0.00 | 94 | 922.7 |
| 20260509144228 | 81 | 0 | 0.0 | 0.0 | 0.00 | 0.00 | 0.00 | 96 | 922.9 |
| 20260509142728 | 81 | 0 | 0.0 | 0.0 | 0.00 | 0.00 | 0.00 | 98 | 923.2 |
| 20260509141228 | 80 | 0 | 0.0 | 0.0 | 0.00 | 0.00 | 0.00 | 98 | 923.2 |
| 20260509135728 | 80 | 0 | 0.0 | 0.0 | 0.00 | 0.00 | 0.00 | 98 | 923.3 |
| 20260509134228 | 79 | 0 | 0.0 | 0.0 | 0.00 | 0.00 | 0.00 | 98 | 923.3 |
| 20260509132728 | 76 | 0 | 0.0 | 0.0 | 0.00 | 0.00 | 0.00 | 98 | 923.3 |
| 20260509131228 | 77 | 0 | 0.0 | 0.0 | 0.00 | 0.00 | 0.00 | 98 | 923.4 |
| 20260509125728 | 79 | 0 | 0.0 | 0.0 | 0.00 | 0.00 | 0.00 | 96 | 923.5 |
| 20260509124228 | 79 | 0 | 0.0 | 0.0 | 0.00 | 0.00 | 0.00 | 97 | 923.5 |
| 20260509122728 | 79 | 0 | 0.0 | 0.0 | 0.00 | 0.00 | 0.00 | 98 | 923.0 |
| 20260509121228 | 77 | 0 | 0.0 | 0.0 | 0.00 | 0.00 | 0.00 | 98 | 923.0 |
| 20260509115728 | 76 | 0 | 0.0 | 0.0 | 0.00 | 0.00 | 0.00 | 98 | 922.9 |
| 20260509114228 | 76 | 0 | 0.0 | 0.0 | 0.00 | 0.00 | 0.00 | 98 | 922.7 |
| 20260509112728 | 78 | 0 | 0.0 | 0.0 | 0.00 | 0.00 | 0.00 | 98 | 922.6 |
| 20260509111228 | 79 | 0 | 0.0 | 0.0 | 0.00 | 0.00 | 0.00 | 97 | 922.3 |
| 20260509105728 | 78 | 0 | 0.0 | 0.0 | 0.00 | 0.00 | 0.00 | 98 | 922.0 |
| 20260509104228 | 75 | 0 | 0.0 | 0.0 | 0.00 | 0.00 | 0.00 | 98 | 921.8 |
| 20260509102728 | 73 | 0 | 0.0 | 0.0 | 0.00 | 0.00 | 0.00 | 98 | 921.5 |
| 20260509101228 | 75 | 0 | 0.0 | 0.0 | 0.00 | 0.00 | 0.00 | 98 | 921.4 |
| 20260509095728 | 76 | 0 | 0.0 | 0.0 | 0.00 | 0.00 | 0.00 | 98 | 921.1 |
| 20260509094228 | 76 | 0 | 0.0 | 0.0 | 0.00 | 0.00 | 0.00 | 98 | 920.8 |
| 20260509092728 | 74 | 0 | 0.0 | 0.0 | 0.00 | 0.00 | 0.00 | 98 | 920.7 |
| 20260509091228 | 75 | 0 | 0.0 | 0.0 | 0.00 | 0.00 | 0.00 | 98 | 920.5 |
| 20260509085728 | 76 | 0 | 0.0 | 0.0 | 0.00 | 0.00 | 0.00 | 98 | 920.2 |
| 20260509084228 | 75 | 0 | 0.0 | 0.0 | 0.00 | 0.00 | 0.00 | 98 | 920.0 |
| 20260509082728 | 75 | 0 | 0.0 | 0.0 | 0.00 | 0.00 | 0.00 | 98 | 919.9 |
| 20260509081228 | 75 | 0 | 0.0 | 0.0 | 0.00 | 0.00 | 0.00 | 98 | 919.7 |
| 20260509075728 | 75 | 0 | 0.0 | 0.0 | 0.00 | 0.00 | 0.00 | 98 | 919.6 |
| 20260509074228 | 76 | 0 | 0.0 | 0.0 | 0.00 | 0.00 | 0.00 | 98 | 919.7 |
| 20260509072728 | 77 | 0 | 0.0 | 0.0 | 0.00 | 0.00 | 0.00 | 98 | 919.9 |
| 20260509071228 | 77 | 0 | 0.0 | 0.0 | 0.00 | 0.00 | 0.00 | 98 | 919.9 |
| 20260509065728 | 76 | 0 | 0.0 | 0.0 | 0.00 | 0.00 | 0.00 | 98 | 919.9 |
| 20260509064228 | 76 | 0 | 0.0 | 0.0 | 0.00 | 0.00 | 0.00 | 98 | 920.0 |
| 20260509062728 | 76 | 0 | 0.0 | 0.0 | 0.00 | 0.00 | 0.00 | 98 | 920.0 |
| 20260509061228 | 76 | 0 | 0.0 | 0.0 | 0.00 | 0.00 | 0.00 | 98 | 920.0 |
| 20260509055728 | 77 | 0 | 0.0 | 0.0 | 0.00 | 0.00 | 0.00 | 98 | 920.0 |
| 20260509054228 | 77 | 0 | 0.0 | 0.0 | 0.00 | 0.00 | 0.00 | 98 | 920.1 |
| 20260509052728 | 77 | 0 | 0.0 | 0.0 | 0.00 | 0.00 | 0.00 | 98 | 920.2 |
| 20260509051229 | 77 | 0 | 0.0 | 0.0 | 0.00 | 0.00 | 0.00 | 98 | 920.1 |
| 20260509045728 | 77 | 0 | 0.0 | 0.0 | 0.00 | 0.00 | 0.00 | 98 | 920.2 |
| 20260509044228 | 77 | 0 | 0.0 | 0.0 | 0.00 | 0.00 | 0.00 | 98 | 920.2 |
| 20260509042728 | 76 | 0 | 0.0 | 0.0 | 0.00 | 0.00 | 0.00 | 98 | 920.2 |
| 20260509041228 | 76 | 0 | 0.0 | 0.0 | 0.00 | 0.00 | 0.00 | 98 | 920.4 |
| 20260509035728 | 76 | 0 | 0.0 | 0.0 | 0.00 | 0.00 | 0.00 | 98 | 920.3 |
| 20260509034228 | 75 | 0 | 0.0 | 0.0 | 0.00 | 0.00 | 0.00 | 98 | 920.4 |
| 20260509032728 | 76 | 0 | 0.0 | 0.0 | 0.00 | 0.00 | 0.00 | 98 | 920.2 |
| 20260509031228 | 76 | 0 | 0.0 | 0.0 | 0.00 | 0.00 | 0.00 | 98 | 920.2 |
| 20260509025728 | 75 | 0 | 0.0 | 0.0 | 0.00 | 0.00 | 0.00 | 98 | 920.1 |
| 20260509024228 | 75 | 0 | 0.0 | 0.0 | 0.00 | 0.00 | 0.00 | 98 | 920.3 |
| 20260509022728 | 75 | 0 | 0.0 | 0.0 | 0.00 | 0.00 | 0.00 | 98 | 920.4 |
| 20260509021228 | 74 | 0 | 0.0 | 0.0 | 0.00 | 0.00 | 0.00 | 98 | 920.3 |
| 20260509015728 | 75 | 0 | 0.0 | 0.0 | 0.00 | 0.00 | 0.00 | 98 | 920.4 |
| 20260509014228 | 76 | 0 | 0.0 | 0.0 | 0.00 | 0.00 | 0.00 | 98 | 920.5 |
| 20260509012728 | 76 | 0 | 0.0 | 0.0 | 0.00 | 0.00 | 0.00 | 98 | 920.3 |
| 20260509011228 | 77 | 0 | 0.0 | 0.0 | 0.00 | 0.00 | 0.00 | 98 | 920.2 |
| 20260509005728 | 77 | 0 | 0.0 | 0.0 | 0.00 | 0.00 | 0.00 | 98 | 920.4 |
| 20260509004228 | 77 | 0 | 0.0 | 0.0 | 0.00 | 0.00 | 0.00 | 98 | 920.4 |
| 20260509002728 | 77 | 0 | 0.0 | 0.0 | 0.00 | 0.00 | 0.00 | 98 | 920.1 |
| 20260509001228 | 77 | 0 | 0.0 | 0.0 | 0.00 | 0.00 | 0.00 | 98 | 920.2 |
| 20260508235728 | 77 | 0 | 0.0 | 0.0 | 0.00 | 0.00 | 0.00 | 98 | 920.1 |
| 20260508234228 | 78 | 0 | 0.0 | 0.0 | 0.00 | 0.00 | 0.00 | 98 | 920.0 |
| 20260508232728 | 78 | 0 | 0.0 | 0.0 | 0.00 | 0.00 | 0.00 | 98 | 920.2 |
| 20260508231228 | 78 | 0 | 0.0 | 0.0 | 0.00 | 0.00 | 0.00 | 98 | 920.2 |
| 20260508225728 | 79 | 0 | 0.0 | 0.0 | 0.00 | 0.00 | 0.00 | 98 | 920.0 |
| 20260508224228 | 78 | 0 | 0.0 | 0.0 | 0.00 | 0.00 | 0.00 | 98 | 920.2 |
| 20260508222728 | 79 | 0 | 0.0 | 0.0 | 0.00 | 0.00 | 0.00 | 98 | 920.3 |
| 20260508221228 | 80 | 0 | 0.0 | 0.0 | 0.00 | 0.00 | 0.00 | 98 | 920.1 |
| 20260508215728 | 80 | 0 | 0.0 | 0.0 | 0.00 | 0.00 | 0.00 | 96 | 920.1 |
| 20260508214228 | 79 | 0 | 0.0 | 0.0 | 0.00 | 0.00 | 0.00 | 95 | 920.1 |
| 20260508212728 | 79 | 0 | 0.0 | 0.0 | 0.00 | 0.00 | 0.00 | 95 | 919.9 |
| 20260508211228 | 80 | 0 | 0.0 | 0.0 | 0.00 | 0.00 | 0.00 | 94 | 919.8 |
| 20260508205728 | 79 | 0 | 0.0 | 0.0 | 0.00 | 0.00 | 0.00 | 94 | 919.6 |
| 20260508204228 | 79 | 0 | 0.0 | 0.0 | 0.00 | 0.00 | 0.00 | 93 | 919.6 |
| 20260508202728 | 80 | 0 | 0.0 | 0.0 | 0.00 | 0.00 | 0.00 | 93 | 919.6 |